Vorticity
8 4 1 7 7 14 17 9 6 8 8 6 3 8 5 6 6 4 4 3 4 6 7 5 9 11 11 12 9 4 11 7 6 7 2 5 6 8 10 10 10 8 9 11 11
2 2 4 3 1 5 17 19 10 6 7 8 3 9 7 5 7 4 4 3 7 6 7 7 15 10 15 12 12 5 16 6 9 5 3 8 11 10 5 6 7 0 6 3 3
4 5 11 9 5 6 15 13 15 13 5 6 4 7 9 4 8 4 5 3 8 6 7 7 11 9 11 12 10 15 13 3 0 3 11 12 10 3 2 2 3 11 12 16 17
11 5 3 12 1 6 3 12 12 13 10 8 7 9 7 9 9 5 3 3 10 7 6 7 10 10 10 9 9 5 5 3 4 7 9 6 5 1 -2 1 6 5 16 19 14
5 7 5 8 12 4 6 8 14 9 13 11 8 5 7 8 6 7 2 6 9 8 7 6 7 13 9 7 5 8 5 4 4 10 3 -1 8 4 -1 1 7 5 14 15 15
7 8 8 13 10 6 5 10 7 13 7 6 8 10 12 8 8 6 -0 12 7 9 8 6 4 14 9 8 6 9 7 1 3 8 5 1 4 -1 2 1 3 5 10 8 14
12 9 11 7 8 9 8 7 15 18 11 9 11 9 9 8 6 5 -1 13 5 10 9 8 5 10 14 11 5 9 9 5 5 3 3 1 11 -4 1 2 3 5 11 11 12
12 8 7 9 10 12 8 12 19 17 17 13 9 7 9 5 6 6 -1 8 4 11 10 8 5 1 14 10 9 12 11 6 3 3 5 3 9 4 -1 3 4 4 8 7 17
12 5 7 16 8 11 7 19 16 15 11 10 8 3 5 5 0 11 -3 7 5 12 8 9 7 0 13 9 14 5 2 11 11 5 8 8 -9 -13 3 4 5 5 6 10 11
6 2 6 6 11 9 9 18 11 8 4 4 6 -3 7 -2 4 17 6 4 8 11 10 10 12 0 14 8 6 2 11 4 10 4 -1 1 6 6 3 5 5 5 4 7 19
5 4 0 3 8 13 9 21 4 8 6 10 4 6 6 0 14 -0 8 3 12 12 11 11 12 5 10 6 4 9 10 9 16 7 9 14 8 5 3 8 4 3 3 4 21
-1 2 3 1 3 8 11 24 10 1 2 10 5 8 13 21 9 9 3 14 12 12 7 15 -4 9 9 4 3 7 9 10 16 -0 10 11 3 2 13 15 4 4 4 4 -3
5 3 2 1 0 6 10 19 16 4 0 -7 13 10 8 10 6 2 11 8 12 10 15 12 -9 13 10 4 6 4 20 10 -2 1 8 26 40 30 14 9 4 4 3 4 5
6 6 6 3 6 6 12 12 16 13 5 -0 5 3 -2 17 -1 3 9 14 15 7 13 8 9 7 13 11 3 28 4 -7 15 22 8 -11 -3 0 18 9 3 4 3 4 5
5 7 7 5 5 9 11 10 20 16 5 9 -0 5 3 14 6 5 12 12 1 15 5 7 11 -1 16 5 8 8 -3 15 8 19 20 26 19 10 9 8 5 3 2 3 3
7 7 4 2 3 8 9 10 22 16 -1 9 1 8 4 16 3 6 16 4 8 19 9 6 12 1 15 -9 19 -5 11 28 20 17 17 7 10 18 14 19 11 6 4 5 6
6 3 4 7 6 7 11 15 16 12 5 4 1 9 6 7 6 2 17 -0 13 30 10 15 12 -3 9 -2 16 21 22 9 14 12 -2 1 31 -14 -3 2 -5 6 6 7 6
4 4 5 3 8 13 12 26 14 -4 9 4 8 15 4 1 8 4 17 1 10 -2 33 3 13 3 -2 -1 1 6 12 14 13 7 -16 30 13 4 -5 5 18 7 6 6 6
6 6 6 9 12 12 17 15 4 6 2 7 12 16 8 -1 20 11 17 4 11 -7 26 15 6 8 13 7 13 -0 5 12 11 24 14 6 7 4 39 13 18 10 6 3 7
6 7 9 10 14 18 18 8 10 9 8 9 13 8 -3 4 12 15 14 -1 17 -5 4 -6 22 10 -11 8 21 12 10 6 9 12 17 10 14 -7 10 18 22 20 10 2 3
5 7 6 8 12 12 11 9 8 9 10 11 6 11 8 6 9 16 7 14 -4 -6 10 12 15 -27 17 -1 2 19 16 11 11 8 4 6 2 -4 -9 -14 -16 -5 17 3 5
7 10 11 11 27 5 7 9 12 8 10 9 12 12 8 8 13 14 1 12 0 5 10 20 11 -1 12 33 21 21 2 2 5 11 -12 -13 -3 11 7 10 16 31 31 5 -0
7 9 7 7 5 5 11 10 8 9 9 3 11 11 9 7 19 4 7 -3 22 6 -5 18 -2 16 23 10 -3 1 8 6 3 12 6 -12 -8 7 -36 -20 6 1 -5 -6 -12
7 7 5 28 -7 7 7 7 9 9 9 7 6 11 6 2 14 -10 10 4 2 17 16 25 17 -0 -31 -28 -1 3 7 4 6 16 -2 -19 -29 21 18 25 27 23 20 12 10
6 5 4 -2 7 8 6 10 7 9 11 5 0 7 8 7 -1 23 -4 8 18 36 -10 14 1 26 10 -0 8 22 20 22 20 24 11 -15 -6 20 25 21 20 15 11 10 21
6 6 7 2 4 6 7 10 11 4 4 6 12 9 6 2 4 2 2 9 12 8 -8 16 -2 -4 17 34 17 -28 54 29 20 28 13 29 9 18 7 13 11 5 5 11 16
5 4 5 3 3 8 8 4 2 9 17 0 5 6 5 15 10 6 7 9 9 12 12 12 15 -12 27 9 -16 60 -25 1 7 19 14 2 6 12 11 8 13 16 17 15 8
Height
3179 3177 3175 3172 3169 3166 3163 3162 3160 3160 3160 3159 3158 3157 3156 3155 3154 3153 3152 3151 3148 3146 3144 3141 3139 3136 3135 3134 3135 3134 3135 3136 3137 3138 3138 3138 3138 3139 3139 3138 3138 3136 3133 3131 3130
3181 3178 3176 3173 3170 3166 3163 3161 3159 3159 3159 3158 3158 3157 3156 3155 3154 3154 3153 3150 3148 3147 3144 3142 3139 3137 3136 3135 3134 3135 3135 3135 3137 3138 3138 3138 3137 3137 3138 3137 3137 3136 3132 3128 3125
3181 3179 3176 3174 3171 3167 3164 3161 3159 3158 3158 3158 3157 3156 3156 3155 3156 3154 3152 3150 3148 3147 3145 3143 3140 3138 3137 3136 3135 3134 3135 3136 3137 3138 3137 3137 3136 3136 3135 3135 3133 3131 3130 3125 3120
3181 3179 3177 3174 3171 3168 3165 3162 3159 3158 3157 3157 3157 3156 3156 3156 3158 3155 3153 3151 3149 3147 3146 3144 3142 3139 3138 3137 3136 3137 3136 3137 3137 3136 3136 3136 3136 3135 3134 3132 3128 3125 3120 3115 3112
3182 3179 3176 3173 3171 3168 3165 3162 3160 3158 3157 3157 3157 3157 3157 3157 3156 3155 3153 3151 3149 3147 3146 3144 3142 3140 3138 3138 3137 3137 3138 3137 3137 3136 3135 3135 3135 3133 3132 3129 3125 3121 3116 3111 3107
3182 3179 3176 3173 3170 3168 3165 3162 3159 3157 3157 3157 3157 3157 3157 3158 3156 3155 3153 3151 3149 3147 3145 3144 3142 3140 3138 3138 3138 3138 3138 3137 3136 3136 3135 3135 3133 3131 3130 3126 3122 3118 3115 3110 3105
3182 3179 3176 3173 3170 3168 3164 3161 3158 3156 3156 3156 3157 3157 3157 3158 3156 3154 3153 3150 3149 3147 3145 3144 3142 3140 3138 3137 3137 3136 3136 3136 3136 3136 3135 3133 3132 3130 3127 3124 3120 3117 3111 3104 3096
3183 3180 3177 3174 3170 3167 3164 3160 3157 3156 3156 3156 3157 3157 3157 3156 3155 3154 3152 3150 3148 3146 3145 3143 3142 3140 3138 3137 3136 3135 3135 3135 3133 3132 3132 3131 3129 3127 3125 3121 3118 3113 3106 3101 3094
3184 3181 3178 3174 3171 3168 3164 3161 3158 3157 3157 3157 3158 3158 3158 3156 3155 3153 3152 3149 3147 3145 3143 3142 3142 3141 3139 3137 3136 3134 3133 3131 3131 3130 3129 3128 3125 3124 3122 3119 3116 3113 3106 3099 3093
3185 3182 3178 3175 3172 3169 3166 3162 3160 3160 3160 3159 3159 3161 3158 3157 3154 3152 3151 3149 3146 3144 3143 3142 3141 3140 3139 3137 3137 3135 3132 3130 3129 3129 3126 3124 3122 3121 3119 3117 3114 3110 3105 3100 3093
3186 3183 3180 3177 3173 3170 3167 3165 3166 3163 3161 3161 3160 3158 3157 3156 3153 3152 3150 3148 3146 3144 3142 3141 3141 3140 3138 3136 3135 3133 3131 3128 3127 3126 3123 3121 3119 3116 3115 3114 3112 3108 3105 3100 3094
3186 3184 3181 3178 3175 3171 3168 3166 3165 3165 3162 3161 3160 3159 3157 3155 3153 3151 3150 3148 3145 3143 3141 3141 3140 3138 3137 3136 3134 3131 3129 3127 3124 3123 3120 3116 3114 3111 3110 3110 3109 3107 3104 3101 3096
3186 3184 3182 3179 3176 3174 3169 3167 3164 3163 3163 3162 3161 3159 3157 3156 3154 3152 3150 3147 3144 3142 3140 3139 3139 3137 3136 3135 3133 3131 3127 3126 3124 3120 3116 3113 3107 3106 3107 3107 3107 3105 3103 3100 3097
3185 3182 3180 3179 3179 3174 3171 3167 3164 3163 3164 3165 3162 3160 3159 3156 3155 3152 3149 3147 3143 3142 3140 3140 3138 3137 3135 3133 3131 3128 3126 3124 3120 3117 3115 3114 3111 3106 3105 3105 3104 3103 3101 3099 3096
3184 3182 3179 3177 3176 3173 3171 3167 3164 3164 3166 3166 3163 3161 3158 3158 3155 3153 3150 3146 3144 3142 3142 3140 3137 3136 3134 3132 3129 3128 3125 3121 3117 3115 3114 3111 3112 3100 3099 3099 3100 3099 3098 3097 3095
3183 3181 3179 3177 3174 3171 3168 3166 3164 3166 3164 3164 3162 3160 3159 3157 3155 3153 3150 3147 3144 3142 3140 3138 3136 3135 3133 3131 3128 3126 3122 3117 3114 3113 3113 3109 3109 3097 3097 3097 3096 3096 3096 3094 3093
3181 3180 3178 3176 3173 3170 3167 3165 3165 3162 3165 3164 3162 3160 3159 3157 3155 3152 3150 3148 3145 3143 3140 3138 3136 3135 3133 3131 3128 3125 3121 3117 3117 3114 3111 3108 3107 3096 3095 3095 3095 3095 3094 3093 3091
3180 3178 3176 3174 3171 3167 3165 3164 3163 3164 3163 3163 3161 3159 3158 3156 3155 3152 3150 3148 3146 3145 3142 3139 3136 3136 3134 3132 3130 3126 3125 3125 3125 3119 3112 3107 3102 3095 3094 3093 3091 3092 3092 3091 3089
3178 3177 3174 3172 3169 3166 3165 3163 3164 3164 3162 3161 3160 3159 3158 3157 3155 3152 3150 3149 3147 3146 3146 3141 3137 3135 3133 3131 3131 3127 3127 3127 3123 3118 3116 3104 3100 3095 3092 3091 3091 3090 3089 3088 3088
3177 3175 3173 3170 3167 3165 3164 3163 3162 3162 3161 3160 3159 3159 3157 3155 3154 3151 3149 3148 3146 3145 3144 3142 3136 3132 3132 3131 3129 3128 3128 3126 3124 3121 3115 3103 3098 3092 3092 3090 3089 3091 3090 3088 3086
3176 3174 3172 3169 3166 3165 3164 3163 3162 3161 3161 3160 3158 3157 3156 3154 3152 3150 3149 3148 3146 3144 3142 3139 3138 3133 3130 3129 3126 3126 3125 3125 3126 3123 3120 3113 3094 3090 3090 3088 3087 3087 3086 3086 3084
3174 3172 3170 3167 3167 3164 3163 3162 3161 3160 3159 3158 3157 3156 3154 3153 3151 3149 3148 3148 3146 3144 3141 3139 3135 3129 3126 3124 3123 3123 3123 3123 3123 3122 3119 3115 3090 3085 3085 3085 3085 3083 3081 3081 3080
3171 3169 3168 3166 3164 3163 3163 3161 3160 3158 3157 3156 3156 3155 3153 3151 3150 3147 3146 3145 3143 3142 3140 3136 3132 3128 3123 3125 3123 3121 3120 3120 3119 3117 3113 3113 3088 3083 3082 3081 3081 3081 3079 3077 3074
3169 3168 3166 3164 3163 3162 3161 3160 3159 3157 3156 3155 3154 3152 3151 3150 3149 3146 3144 3142 3140 3137 3135 3133 3129 3129 3124 3122 3121 3114 3113 3113 3113 3107 3103 3090 3082 3079 3079 3075 3073 3071 3071 3070 3069
3166 3165 3163 3162 3160 3159 3159 3158 3156 3155 3154 3152 3151 3150 3148 3145 3144 3141 3140 3137 3135 3132 3129 3127 3122 3120 3115 3113 3112 3105 3101 3103 3099 3094 3096 3076 3080 3073 3074 3070 3066 3064 3063 3061 3060
3163 3162 3161 3160 3158 3157 3155 3155 3153 3152 3152 3149 3148 3146 3144 3142 3140 3135 3134 3132 3129 3127 3124 3121 3115 3111 3103 3103 3103 3097 3092 3090 3087 3084 3080 3077 3070 3072 3067 3064 3062 3059 3056 3055 3052
3158 3158 3157 3156 3155 3154 3152 3150 3149 3148 3147 3145 3143 3142 3140 3138 3134 3132 3130 3127 3124 3120 3119 3116 3112 3108 3098 3096 3094 3087 3086 3084 3082 3080 3077 3072 3070 3066 3064 3059 3056 3054 3052 3050 3048